TimeCST,TemperatureF,Dew PointF,Humidity,Sea Level PressureIn,VisibilityMPH,Wind Direction,Wind SpeedMPH,Gust SpeedMPH,PrecipitationIn,Events,Conditions,WindDirDegrees,DateUTC
12:15 AM,17.6,10.4,73,29.93,10.0,South,15.0,-,N/A,,Overcast,180,2013-02-17 06:15:00
12:34 AM,15.8,10.4,79,29.93,10.0,South,17.3,-,N/A,,Overcast,180,2013-02-17 06:34:00
12:55 AM,15.8,10.4,79,29.93,10.0,South,16.1,20.7,N/A,,Overcast,180,2013-02-17 06:55:00
1:15 AM,15.8,10.4,79,29.91,10.0,South,17.3,-,N/A,,Overcast,180,2013-02-17 07:15:00
1:35 AM,15.8,10.4,79,29.90,10.0,South,17.3,-,N/A,,Overcast,170,2013-02-17 07:35:00
1:55 AM,15.8,12.2,86,29.89,10.0,South,17.3,-,N/A,,Overcast,170,2013-02-17 07:55:00
2:15 AM,17.6,12.2,79,29.88,7.0,South,16.1,-,N/A,Snow,Light Snow,170,2013-02-17 08:15:00
2:35 AM,17.6,12.2,79,29.87,10.0,South,17.3,-,N/A,,Overcast,170,2013-02-17 08:35:00
2:55 AM,17.6,12.2,79,29.86,10.0,SSE,16.1,-,N/A,,Overcast,160,2013-02-17 08:55:00
3:15 AM,17.6,12.2,79,29.85,10.0,SSE,15.0,-,N/A,,Overcast,160,2013-02-17 09:15:00
3:35 AM,17.6,12.2,79,29.84,10.0,South,16.1,-,N/A,,Overcast,170,2013-02-17 09:35:00
3:55 AM,17.6,14.0,86,29.83,10.0,South,16.1,-,N/A,,Overcast,180,2013-02-17 09:55:00
4:15 AM,17.6,14.0,86,29.83,10.0,South,17.3,-,N/A,,Overcast,180,2013-02-17 10:15:00
4:35 AM,17.6,14.0,86,29.82,10.0,South,18.4,-,N/A,,Overcast,170,2013-02-17 10:35:00
4:55 AM,17.6,14.0,86,29.80,10.0,South,18.4,-,N/A,,Overcast,170,2013-02-17 10:55:00
5:15 AM,17.6,15.8,93,29.79,10.0,South,18.4,23.0,N/A,,Overcast,170,2013-02-17 11:15:00
5:35 AM,19.4,15.8,86,29.78,10.0,South,18.4,-,N/A,,Overcast,170,2013-02-17 11:35:00
5:55 AM,19.4,15.8,86,29.78,10.0,South,19.6,-,N/A,,Overcast,170,2013-02-17 11:55:00
6:15 AM,19.4,15.8,86,29.78,10.0,South,17.3,-,N/A,,Overcast,170,2013-02-17 12:15:00
6:35 AM,19.4,15.8,86,29.77,10.0,South,17.3,-,N/A,,Overcast,170,2013-02-17 12:35:00
6:55 AM,19.4,15.8,86,29.76,10.0,South,16.1,-,N/A,,Overcast,170,2013-02-17 12:55:00
7:15 AM,19.4,15.8,86,29.75,10.0,South,18.4,-,N/A,,Overcast,170,2013-02-17 13:15:00
7:35 AM,19.4,15.8,86,29.75,10.0,South,18.4,-,N/A,,Overcast,170,2013-02-17 13:35:00
7:54 AM,19.4,15.8,86,29.74,10.0,SSE,16.1,-,N/A,,Overcast,160,2013-02-17 13:54:00
8:15 AM,19.4,17.6,93,29.72,10.0,SSE,13.8,-,N/A,,Scattered Clouds,160,2013-02-17 14:15:00
8:35 AM,21.2,17.6,86,29.71,7.0,SSE,15.0,19.6,N/A,,Scattered Clouds,160,2013-02-17 14:35:00
8:55 AM,21.2,19.4,93,29.70,10.0,SSE,18.4,23.0,N/A,,Clear,160,2013-02-17 14:55:00
9:15 AM,23.0,19.4,86,29.69,10.0,SSE,17.3,23.0,N/A,,Scattered Clouds,160,2013-02-17 15:15:00
9:35 AM,23.0,19.4,86,29.69,7.0,SSE,17.3,24.2,N/A,,Clear,160,2013-02-17 15:35:00
9:55 AM,24.8,19.4,80,29.68,10.0,SSE,15.0,21.9,N/A,,Scattered Clouds,150,2013-02-17 15:55:00
10:15 AM,26.6,21.2,80,29.67,10.0,SSE,13.8,-,N/A,,Scattered Clouds,160,2013-02-17 16:15:00
10:35 AM,26.6,21.2,80,29.66,10.0,SSE,13.8,-,N/A,,Scattered Clouds,160,2013-02-17 16:35:00
11:15 AM,30.2,23.0,75,29.64,10.0,SSE,16.1,-,N/A,,Clear,160,2013-02-17 17:15:00
11:35 AM,30.2,23.0,75,29.63,10.0,SSE,16.1,-,N/A,,Scattered Clouds,160,2013-02-17 17:35:00
11:55 AM,32.0,23.0,69,29.62,10.0,SSE,16.1,-,N/A,,Scattered Clouds,160,2013-02-17 17:55:00
12:15 PM,33.8,24.8,70,29.59,10.0,SSE,16.1,21.9,N/A,,Scattered Clouds,160,2013-02-17 18:15:00
12:35 PM,33.8,24.8,70,29.58,10.0,South,19.6,-,N/A,,Clear,170,2013-02-17 18:35:00
12:55 PM,33.8,24.8,70,29.57,10.0,South,16.1,-,N/A,,Scattered Clouds,170,2013-02-17 18:55:00
1:15 PM,33.8,26.6,75,29.56,10.0,South,19.6,26.5,N/A,,Scattered Clouds,170,2013-02-17 19:15:00
1:35 PM,33.8,26.6,75,29.55,10.0,South,23.0,32.2,N/A,,Scattered Clouds,170,2013-02-17 19:35:00
1:55 PM,33.8,26.6,75,29.54,10.0,South,21.9,29.9,N/A,,Scattered Clouds,170,2013-02-17 19:55:00
2:15 PM,33.8,26.6,75,29.53,7.0,South,21.9,29.9,N/A,,Scattered Clouds,170,2013-02-17 20:15:00
2:35 PM,33.8,26.6,75,29.52,10.0,South,24.2,32.2,N/A,,Scattered Clouds,170,2013-02-17 20:35:00
2:55 PM,33.8,26.6,75,29.51,10.0,South,20.7,-,N/A,,Scattered Clouds,170,2013-02-17 20:55:00
3:15 PM,33.8,26.6,75,29.51,10.0,South,25.3,31.1,N/A,,Scattered Clouds,170,2013-02-17 21:15:00
3:35 PM,32.0,26.6,80,29.49,7.0,SSE,25.3,34.5,N/A,,Mostly Cloudy,160,2013-02-17 21:35:00
3:55 PM,32.0,26.6,80,29.49,7.0,SSE,21.9,34.5,N/A,,Scattered Clouds,160,2013-02-17 21:55:00
4:15 PM,32.0,24.8,75,29.49,10.0,South,21.9,31.1,N/A,,Scattered Clouds,170,2013-02-17 22:15:00
4:35 PM,32.0,24.8,75,29.49,10.0,South,20.7,29.9,N/A,,Scattered Clouds,170,2013-02-17 22:35:00
4:55 PM,32.0,24.8,75,29.50,10.0,South,16.1,19.6,N/A,,Mostly Cloudy,170,2013-02-17 22:55:00
5:15 PM,30.2,24.8,80,29.51,10.0,South,15.0,-,N/A,,Overcast,170,2013-02-17 23:15:00
5:35 PM,30.2,24.8,80,29.52,10.0,South,16.1,-,N/A,,Overcast,180,2013-02-17 23:35:00
5:55 PM,30.2,24.8,80,29.52,10.0,South,19.6,-,N/A,,Overcast,170,2013-02-17 23:55:00
6:15 PM,28.4,24.8,86,29.51,10.0,South,19.6,-,N/A,,Overcast,170,2013-02-18 00:15:00
6:35 PM,28.4,24.8,86,29.51,10.0,SSE,21.9,26.5,N/A,,Overcast,160,2013-02-18 00:35:00
6:55 PM,28.4,23.0,80,29.53,10.0,South,17.3,-,N/A,,Overcast,180,2013-02-18 00:55:00
7:15 PM,28.4,23.0,80,29.54,10.0,South,17.3,-,N/A,,Overcast,180,2013-02-18 01:15:00
7:35 PM,28.4,23.0,80,29.54,10.0,South,16.1,-,N/A,,Overcast,180,2013-02-18 01:35:00
7:55 PM,28.4,24.8,86,29.54,10.0,South,16.1,-,N/A,,Overcast,170,2013-02-18 01:55:00
8:15 PM,28.4,23.0,80,29.53,10.0,South,18.4,-,N/A,,Mostly Cloudy,170,2013-02-18 02:15:00
8:35 PM,28.4,23.0,80,29.52,10.0,South,17.3,-,N/A,,Mostly Cloudy,170,2013-02-18 02:35:00
8:55 PM,26.6,23.0,86,29.52,10.0,South,18.4,-,N/A,,Scattered Clouds,170,2013-02-18 02:55:00
9:15 PM,26.6,23.0,86,29.51,10.0,South,17.3,-,N/A,,Scattered Clouds,170,2013-02-18 03:15:00
9:35 PM,26.6,23.0,86,29.51,10.0,South,17.3,-,N/A,,Mostly Cloudy,170,2013-02-18 03:35:00
9:55 PM,28.4,24.8,86,29.51,10.0,SSE,12.7,20.7,N/A,,Overcast,160,2013-02-18 03:55:00
10:15 PM,28.4,24.8,86,29.50,10.0,SSE,17.3,-,N/A,,Mostly Cloudy,160,2013-02-18 04:15:00
10:35 PM,28.4,24.8,86,29.50,10.0,SSE,15.0,19.6,N/A,,Overcast,160,2013-02-18 04:35:00
10:55 PM,28.4,24.8,86,29.50,10.0,SSE,15.0,-,N/A,,Overcast,160,2013-02-18 04:55:00
11:15 PM,28.4,24.8,86,29.50,10.0,South,15.0,-,N/A,,Overcast,170,2013-02-18 05:15:00
11:35 PM,28.4,24.8,86,29.50,10.0,South,13.8,-,N/A,,Overcast,170,2013-02-18 05:35:00
11:55 PM,28.4,24.8,86,29.49,10.0,South,13.8,-,N/A,,Overcast,170,2013-02-18 05:55:00